Weather History for Columbia, MO

Change the Weather History Date:

Tuesday, October 1, 2013

  Actual Average Record
Temperature  
Mean Temperature 74 °F 61 °F  
Max Temperature 84 °F 72 °F 94 °F (1897)
Min Temperature 63 °F 50 °F 28 °F (1895)
Degree Days  
Heating Degree Days 0 6  
Month to date heating degree days 0 6  
Since 1 July heating degree days 16 74  
Cooling Degree Days 9 2  
Month to date cooling degree days 9 2  
Year to date cooling degree days 1283 1229  
Growing Degree Days 23 (Base 50)    
Moisture  
Dew Point 64 °F    
Average Humidity 74    
Maximum Humidity 100    
Minimum Humidity 47    
Precipitation  
Precipitation 0.00 in 0.13 in 2.68 in (1911)
Month to date precipitation 0.00 0.13  
Year to date precipitation 35.51 33.75  
Snow  
Snow 0.00 in 0.00 in 0.00 in (2012)
Month to date snowfall 0.0 0.0  
Since 1 July snowfall 0.0 0.0  
Since 1 September snowfall 0.0 0.0  
Snow Depth 0.00 in    
Sea Level Pressure  
Sea Level Pressure 29.95 in    
Wind  
Wind Speed 8 mph (South)    
Max Wind Speed 15 mph    
Max Gust Speed 19 mph    
Visibility 8 miles    
Events      
T = Trace of Precipitation, MM = Missing Value Source: NWS Daily Summary

Daily Weather History Graph

Daily Weather History Graph

Search for Another Location

Airport:

Trip Planner

Search our weather history database for the weather conditions in past years. The results will help you decide how hot, cold, wet, or windy it might be!

Date:

Astronomy

Oct. 01, 2013 Rise Set
Actual Time 7:05 AM CDT 6:51 PM CDT
Civil Twilight 6:38 AM CDT 7:17 PM CDT
Nautical Twilight 6:07 AM CDT 7:48 PM CDT
Astronomical Twilight 5:36 AM CDT 8:19 PM CDT
Moon 3:41 AM CDT (10/1) 4:53 PM CDT (10/1)
Length of Visible Light 12h 39m
Length of Day
11h 46m
Waning Crescent, 12% of the Moon is Illuminated
Oct 1
Waning Crescent
Oct 4
New
Oct 11
First Quarter
Oct 18
Full
Oct 26
Last Quarter

Hourly Weather History & Observations

Time (CDT) Temp. Heat Index Dew Point Humidity Pressure Visibility Wind Dir Wind Speed Gust Speed Precip Events Conditions
12:54 AM 63.0 °F - 61.0 °F 93% 29.90 in 10.0 mi SSE 8.1 mph - N/A   Clear
1:54 AM 63.0 °F - 61.0 °F 93% 29.91 in 10.0 mi SSE 10.4 mph - N/A   Clear
2:44 AM 63.0 °F - 61.0 °F 93% 29.92 in 9.0 mi SSE 9.2 mph - N/A   Scattered Clouds
2:54 AM 63.0 °F - 62.1 °F 97% 29.91 in 9.0 mi SSE 10.4 mph - N/A   Mostly Cloudy
3:31 AM 64.9 °F - 63.0 °F 93% 29.92 in 8.0 mi South 11.5 mph - N/A   Overcast
3:54 AM 64.9 °F - 63.0 °F 93% 29.91 in 7.0 mi South 9.2 mph - N/A   Overcast
4:22 AM 64.9 °F - 64.0 °F 97% 29.93 in 7.0 mi South 10.4 mph - N/A   Overcast
4:54 AM 66.0 °F - 64.9 °F 96% 29.92 in 7.0 mi South 9.2 mph - N/A   Overcast
5:54 AM 66.9 °F - 64.9 °F 93% 29.93 in 7.0 mi South 8.1 mph - N/A   Overcast
6:37 AM 64.9 °F - 63.0 °F 93% 29.96 in 5.0 mi SSE 5.8 mph - N/A   Scattered Clouds
6:54 AM 64.9 °F - 63.0 °F 93% 29.96 in 4.0 mi SSE 5.8 mph - N/A   Scattered Clouds
7:54 AM 66.0 °F - 64.9 °F 96% 29.97 in 3.0 mi SSE 6.9 mph - N/A   Scattered Clouds
7:59 AM 66.0 °F - 64.9 °F 96% 29.99 in 4.0 mi SSE 8.1 mph - N/A   Overcast
8:50 AM 68.0 °F - 66.2 °F 94% 30.00 in 5.0 mi South 9.2 mph - N/A   Overcast
8:54 AM 68.0 °F - 66.0 °F 93% 29.99 in 5.0 mi South 10.4 mph - N/A   Overcast
9:22 AM 71.1 °F - 68.0 °F 90% 30.00 in 8.0 mi South 5.8 mph - N/A   Mostly Cloudy
9:54 AM 73.0 °F - 68.0 °F 84% 29.99 in 10.0 mi SSW 9.2 mph - N/A   Mostly Cloudy
10:54 AM 75.9 °F - 68.0 °F 76% 29.99 in 10.0 mi South 9.2 mph - N/A   Mostly Cloudy
11:54 AM 78.1 °F - 66.9 °F 68% 29.99 in 10.0 mi South 10.4 mph - N/A   Mostly Cloudy
12:54 PM 79.0 °F - 66.0 °F 64% 29.98 in 10.0 mi SW 6.9 mph - N/A   Mostly Cloudy
1:54 PM 82.0 °F 84.1 °F 66.0 °F 58% 29.96 in 10.0 mi South 11.5 mph - N/A   Partly Cloudy
2:54 PM 82.0 °F 83.4 °F 64.0 °F 54% 29.94 in 10.0 mi SW 8.1 mph - N/A   Scattered Clouds
3:54 PM 82.9 °F 83.7 °F 62.1 °F 49% 29.94 in 10.0 mi WSW 9.2 mph - N/A   Partly Cloudy
4:54 PM 82.0 °F 82.7 °F 61.0 °F 49% 29.94 in 10.0 mi WSW 11.5 mph - N/A   Partly Cloudy
5:54 PM 80.1 °F 81.5 °F 63.0 °F 56% 29.94 in 10.0 mi SSW 5.8 mph - N/A   Clear
6:54 PM 73.9 °F - 62.1 °F 66% 29.95 in 10.0 mi SSW 4.6 mph - N/A   Clear
7:54 PM 73.9 °F - 62.1 °F 66% 29.96 in 10.0 mi South 3.5 mph - N/A   Clear
8:54 PM 70.0 °F - 62.1 °F 76% 29.97 in 10.0 mi South 4.6 mph - N/A   Clear
9:54 PM 70.0 °F - 62.1 °F 76% 29.97 in 10.0 mi South 4.6 mph - N/A   Clear
10:54 PM 69.1 °F - 62.1 °F 78% 29.98 in 10.0 mi South 3.5 mph - N/A   Clear
11:54 PM 66.0 °F - 62.1 °F 87% 29.99 in 10.0 mi SE 5.8 mph - N/A   Clear